Vorticity
8 8 8 9 9 9 8 8 8 8 8 8 9 10 10 11 12 12 12 12 11 11 10 10 10 10 10 9 8 7 6 6 6 6 6 7 8 8 8 8 9 9 10 10 11 11 11 11 11 11 12 11 11 10 9 9 7 6 5 5 5 4 4 4 4 4 4 4 4
8 8 8 8 8 8 8 8 7 7 7 8 9 10 11 12 12 12 12 12 11 11 10 10 10 10 10 9 8 7 6 6 6 6 6 7 7 8 8 8 8 9 9 10 10 11 11 11 11 11 11 10 10 9 8 7 6 5 5 5 4 4 4 5 4 4 4 4 3
7 8 8 8 8 8 8 8 8 8 8 8 9 10 10 12 12 13 12 12 11 11 11 10 10 10 10 9 8 7 7 6 6 6 6 7 7 8 8 8 8 9 9 10 10 10 10 10 11 10 10 9 9 8 7 6 5 5 4 4 4 4 5 5 4 4 4 4 3
7 7 7 7 7 7 8 8 8 8 8 9 9 10 10 11 12 13 12 11 11 11 11 10 10 10 10 9 8 8 7 6 6 6 7 7 7 7 8 8 8 8 9 10 10 10 10 10 10 10 9 8 7 6 6 5 4 4 4 3 3 4 4 4 4 3 3 3 3
7 7 7 6 6 7 7 7 8 8 9 9 10 10 11 11 12 13 13 12 12 11 11 11 10 10 10 9 8 8 7 7 7 7 7 7 7 7 7 8 8 8 8 9 10 10 9 9 9 9 8 7 6 5 4 4 4 4 3 3 4 4 3 3 3 3 3 3 3
7 7 7 6 6 6 7 7 8 9 9 10 10 10 11 11 12 13 13 12 12 11 11 11 11 10 10 9 8 8 7 7 7 7 7 7 7 7 7 8 8 8 8 9 9 9 9 9 8 8 7 6 5 5 4 4 4 3 3 3 3 3 3 3 3 3 3 3 3
7 6 6 6 6 7 7 8 8 9 10 10 10 11 11 12 12 12 12 12 11 11 11 11 11 10 10 10 9 8 7 7 7 7 7 7 7 7 7 7 8 8 8 9 8 8 8 8 8 7 6 6 5 4 4 4 4 3 3 3 3 3 3 3 2 3 3 2 2
8 7 6 6 6 6 7 8 8 9 10 10 11 11 12 12 12 12 12 12 12 12 11 11 11 10 10 10 9 8 7 7 7 7 7 7 7 7 7 7 7 8 8 8 8 8 7 7 7 6 6 5 4 4 4 4 4 3 3 2 2 3 3 3 3 3 3 2 2
8 8 7 6 6 6 7 8 8 9 10 10 11 12 12 12 12 12 12 12 12 12 12 12 11 11 10 10 9 8 7 7 7 6 7 7 7 6 6 7 7 7 8 8 8 7 7 6 6 6 5 5 4 4 4 3 3 3 3 2 3 3 3 3 3 3 3 3 3
9 8 8 7 7 7 7 8 8 9 9 10 11 12 12 12 12 12 12 11 11 12 12 12 12 12 11 10 9 8 7 7 6 6 6 6 6 6 6 6 6 7 7 8 7 7 6 6 6 6 5 5 4 4 4 3 3 3 3 3 3 3 3 3 3 3 3 3 3
8 8 8 8 8 7 8 8 9 9 10 10 11 11 12 12 13 12 12 12 11 12 12 12 12 12 12 11 10 8 8 7 6 6 6 6 6 6 6 6 6 6 7 7 7 7 6 6 5 5 5 5 4 4 4 4 3 3 3 3 3 3 3 3 3 3 3 3 3
8 9 9 8 8 8 8 8 8 9 10 10 11 11 12 12 12 12 12 12 11 11 11 12 12 12 12 11 10 9 8 7 6 6 6 6 6 6 6 6 6 6 6 7 7 6 6 5 5 5 4 4 4 4 4 4 4 4 4 4 3 3 3 4 3 3 3 3 3
8 9 9 9 9 8 8 8 9 9 10 11 11 12 12 12 12 12 12 12 11 11 11 12 12 13 13 12 11 10 8 7 7 6 6 6 6 6 6 6 6 6 6 6 6 6 5 5 4 4 4 4 4 4 3 4 4 4 4 4 4 4 4 4 4 4 4 4 3
8 9 10 9 9 9 9 9 9 10 10 11 12 12 12 12 12 12 12 12 11 11 11 11 12 13 13 13 12 10 9 8 7 6 6 6 6 6 6 6 6 6 6 6 6 6 5 4 4 4 4 4 4 3 3 3 3 4 4 4 4 4 4 4 4 4 4 4 4
9 9 10 9 9 9 9 9 10 10 11 12 12 12 12 12 12 12 12 12 11 11 11 11 12 13 13 13 13 11 10 9 8 7 6 6 6 6 6 6 6 6 6 6 6 5 5 4 4 4 4 4 3 3 3 3 3 3 3 4 4 4 4 4 4 4 4 4 4
10 9 9 9 10 10 10 10 10 10 11 12 13 13 13 13 12 12 12 12 11 11 11 11 12 13 13 14 13 12 11 10 8 7 6 6 6 6 6 6 6 6 5 5 5 5 5 4 4 4 4 4 4 3 3 3 3 3 3 3 3 3 4 4 4 5 5 4 4
13 10 8 9 9 10 10 10 10 11 12 12 13 13 13 13 13 12 12 11 11 11 10 10 11 12 13 14 14 13 12 10 9 8 7 6 6 6 7 7 6 6 5 5 5 5 5 4 4 4 4 4 4 3 3 3 3 3 3 3 3 3 4 4 4 5 5 5 4
16 12 10 9 9 10 10 10 10 11 12 13 13 13 13 13 13 12 12 11 11 10 10 10 11 12 13 14 14 14 13 11 10 8 7 6 6 6 7 7 7 6 6 5 5 5 4 4 4 4 4 4 4 3 3 3 3 3 3 3 3 3 3 4 4 4 5 5 5
18 15 12 10 9 9 10 10 10 11 12 12 13 14 14 14 13 13 12 11 11 10 10 10 11 11 12 13 14 14 13 12 11 9 8 6 6 6 6 7 7 7 6 6 5 5 4 4 4 4 4 4 4 4 3 3 3 3 3 3 3 3 3 4 4 4 4 4 4
16 16 14 11 10 9 9 10 10 10 11 12 13 14 14 14 14 13 12 11 10 10 10 10 10 11 12 13 14 15 14 13 12 10 8 7 6 6 6 7 7 7 7 6 6 5 4 4 4 4 4 4 4 4 4 3 3 3 3 3 3 3 3 3 4 4 4 4 4
14 15 14 13 11 10 9 9 9 10 10 12 13 13 14 14 14 13 12 11 10 10 10 10 10 11 12 13 14 15 15 14 13 11 9 8 6 6 6 7 7 8 8 7 6 6 5 4 4 4 5 5 4 4 4 4 3 3 3 3 3 3 3 3 4 4 4 4 4
11 13 14 14 13 11 10 9 8 9 10 11 12 13 14 14 14 13 13 11 11 10 10 10 10 10 11 12 13 14 15 15 13 12 10 8 7 6 6 6 7 8 8 8 7 6 5 4 4 4 5 5 5 4 4 4 4 3 3 3 3 3 3 3 4 4 4 4 4
10 11 13 14 14 13 11 9 8 8 9 10 11 13 14 14 14 14 13 12 11 10 10 10 10 10 11 12 13 14 15 15 14 13 11 9 8 7 6 6 7 8 8 8 8 7 6 5 4 4 4 5 5 5 4 4 4 4 4 3 3 3 3 4 4 4 4 4 4
9 10 11 13 14 14 12 10 9 8 8 9 10 12 13 14 14 14 13 12 12 11 10 10 10 10 10 11 12 13 15 15 15 14 12 10 9 7 7 6 7 7 8 8 8 8 7 6 5 5 5 5 5 5 5 5 4 4 4 4 4 4 4 4 4 4 4 5 5
9 8 9 11 13 14 13 11 9 8 8 8 9 11 12 13 14 14 14 13 12 11 10 10 10 10 10 11 12 13 14 15 15 15 13 12 10 8 7 7 7 7 8 8 9 9 8 7 6 6 5 6 6 6 6 5 5 5 4 4 4 4 4 4 4 5 5 5 5
10 8 8 10 12 14 14 13 10 8 8 7 8 10 11 13 13 14 14 13 12 11 10 10 10 10 10 10 12 13 13 14 15 15 14 13 11 9 8 7 7 7 8 8 9 9 9 8 7 6 6 6 6 6 6 6 5 5 5 5 4 4 4 4 4 5 5 6 6
12 10 8 8 11 13 14 14 12 10 8 7 8 9 10 12 13 14 14 13 13 12 11 10 10 10 10 10 11 12 13 14 15 15 14 13 12 10 9 7 7 7 8 8 8 9 9 8 8 7 7 6 7 7 6 6 6 6 6 5 5 5 5 5 4 5 5 6 6
13 11 9 8 10 12 14 14 13 11 9 8 7 8 9 10 12 13 14 14 13 12 11 11 10 10 10 10 10 11 13 14 15 15 15 14 13 11 9 8 8 7 8 8 8 9 9 9 8 8 7 7 7 7 7 7 7 7 6 6 6 6 6 5 5 5 5 5 6
14 13 10 9 9 11 13 14 14 13 10 8 7 7 8 9 11 12 13 14 13 13 12 11 10 10 10 10 10 11 12 13 14 15 15 15 13 12 10 9 8 8 8 8 9 9 9 9 9 8 8 8 8 8 8 8 7 7 7 7 6 6 6 6 6 5 5 5 5
14 13 12 10 9 10 12 14 14 14 12 10 8 7 7 8 10 11 13 13 13 13 12 11 10 10 10 10 10 10 11 12 13 14 15 15 14 13 11 9 8 8 8 8 9 9 9 9 9 8 8 8 8 8 8 8 8 8 8 7 7 7 6 6 6 6 6 6 6
14 13 13 11 10 10 10 12 14 14 13 11 9 7 7 7 8 10 11 13 13 13 13 12 11 10 10 10 10 10 10 12 13 14 15 15 15 13 12 10 9 8 8 8 9 9 10 9 9 8 8 8 8 8 8 8 8 8 8 7 7 7 6 6 6 6 6 6 6
13 13 13 12 11 10 9 10 12 14 14 13 10 8 7 6 6 8 10 11 12 13 13 12 12 11 10 10 10 10 10 11 12 13 14 15 15 14 13 11 10 9 9 9 9 10 10 10 9 8 8 8 8 8 8 8 8 8 8 8 7 7 6 6 6 6 6 6 6
14 13 13 13 12 10 9 8 10 13 14 14 12 9 7 6 6 6 8 10 12 13 13 12 12 11 10 10 9 10 10 10 11 13 14 15 15 14 13 12 10 9 9 9 9 10 10 10 9 8 8 8 8 8 8 8 8 8 8 8 7 7 6 6 6 6 6 6 6
16 14 13 13 13 12 10 8 9 11 14 14 13 11 8 6 5 6 7 8 10 12 12 12 12 11 10 10 9 9 10 10 11 12 13 14 15 15 14 12 11 10 9 9 10 10 10 10 9 9 8 8 8 8 8 8 8 8 8 8 7 7 6 6 6 6 6 6 6
19 16 14 14 14 13 10 8 8 10 13 14 14 12 10 8 6 5 5 6 8 10 12 13 12 12 11 10 10 9 10 10 11 12 13 14 15 15 14 13 11 10 10 10 10 10 10 10 9 9 8 8 8 8 8 8 8 8 8 8 7 7 6 6 6 6 6 6 7
22 19 16 15 15 14 12 9 7 8 11 13 14 13 11 9 7 5 4 4 7 9 11 13 12 12 12 11 10 10 10 9 10 11 12 13 14 15 15 13 12 11 10 10 10 10 10 10 9 9 8 8 8 8 8 8 8 8 8 7 7 7 6 6 6 6 6 7 7
25 22 19 17 16 15 13 10 7 7 9 12 14 14 13 10 9 7 5 4 5 8 10 12 12 12 12 11 11 10 10 9 10 11 12 13 14 15 15 14 12 11 11 10 10 10 10 10 9 9 8 8 8 8 8 8 8 8 8 7 7 7 6 6 6 6 6 7 8
26 24 21 18 17 16 15 12 8 7 7 10 13 14 13 12 10 8 6 5 4 6 9 11 12 12 12 11 11 10 10 10 10 10 11 13 13 14 15 14 13 12 11 11 10 10 10 10 9 9 8 8 8 8 8 8 8 8 8 7 7 6 6 6 6 6 7 7 8
27 26 24 21 19 18 17 14 10 7 7 9 12 14 14 13 11 9 7 6 5 5 7 9 11 12 12 12 11 11 10 10 10 10 11 12 13 14 14 14 13 12 11 11 10 10 10 10 9 9 8 8 8 8 8 8 8 8 7 7 6 6 6 6 6 6 7 8 8
27 27 25 23 21 20 18 16 12 8 7 7 11 13 15 14 12 10 8 7 6 6 6 8 10 11 12 12 12 11 11 10 10 10 10 11 13 14 14 14 13 12 11 11 11 10 10 10 9 8 8 8 8 8 8 8 8 7 7 6 6 6 6 6 6 7 7 8 8
26 27 26 24 23 22 20 18 15 10 7 6 9 12 14 15 13 11 10 8 7 6 6 7 9 11 12 12 12 12 11 10 10 10 10 11 12 13 14 14 13 12 12 11 11 10 10 10 9 8 8 8 8 8 8 8 8 7 7 6 6 6 5 6 6 7 8 8 8
Height
3022 3022 3023 3024 3024 3025 3025 3026 3027 3028 3028 3029 3030 3030 3031 3032 3032 3033 3034 3034 3035 3035 3036 3037 3038 3039 3039 3040 3040 3041 3042 3043 3043 3044 3044 3045 3045 3046 3046 3047 3047 3048 3049 3049 3050 3050 3050 3051 3051 3052 3052 3053 3053 3054 3054 3054 3055 3055 3055 3055 3055 3056 3056 3056 3056 3056 3056 3056 3056
3020 3021 3022 3022 3023 3023 3024 3024 3025 3026 3027 3027 3028 3029 3029 3030 3030 3031 3032 3033 3034 3034 3035 3036 3037 3037 3038 3039 3039 3040 3041 3041 3042 3043 3043 3044 3044 3045 3045 3046 3046 3047 3048 3048 3049 3049 3050 3050 3051 3051 3052 3052 3053 3053 3054 3054 3054 3055 3055 3055 3055 3055 3055 3055 3055 3056 3056 3056 3056
3019 3019 3020 3020 3021 3022 3022 3023 3024 3024 3025 3025 3026 3027 3028 3028 3029 3030 3030 3031 3032 3033 3034 3034 3035 3036 3037 3037 3038 3039 3039 3040 3041 3041 3042 3043 3043 3044 3044 3045 3045 3046 3047 3048 3048 3049 3049 3049 3050 3050 3051 3051 3052 3052 3053 3054 3054 3054 3054 3054 3054 3055 3055 3055 3055 3055 3055 3055 3055
3017 3018 3018 3019 3019 3020 3021 3021 3022 3023 3023 3024 3024 3025 3026 3026 3027 3028 3029 3030 3030 3031 3032 3033 3034 3035 3035 3036 3037 3038 3038 3039 3040 3040 3041 3041 3042 3043 3043 3044 3044 3045 3046 3047 3047 3048 3049 3049 3049 3050 3050 3051 3051 3052 3052 3053 3054 3054 3054 3054 3054 3054 3054 3054 3055 3055 3055 3055 3055
3015 3016 3017 3017 3018 3019 3019 3020 3020 3021 3021 3022 3023 3023 3024 3025 3026 3026 3027 3028 3029 3030 3031 3032 3033 3033 3034 3035 3035 3036 3037 3038 3039 3039 3040 3040 3041 3042 3042 3043 3044 3044 3045 3046 3046 3047 3048 3048 3049 3049 3050 3050 3051 3051 3052 3053 3053 3053 3053 3054 3054 3054 3054 3054 3054 3054 3054 3054 3054
3014 3014 3015 3015 3016 3017 3017 3018 3019 3019 3020 3020 3021 3021 3022 3023 3024 3025 3025 3026 3027 3028 3029 3030 3031 3032 3033 3034 3034 3035 3036 3037 3037 3038 3039 3039 3040 3040 3041 3042 3043 3043 3044 3045 3045 3046 3047 3047 3048 3049 3049 3049 3050 3051 3051 3052 3052 3053 3053 3053 3053 3054 3054 3054 3054 3054 3054 3054 3054
3012 3013 3013 3014 3014 3015 3016 3016 3017 3017 3018 3019 3019 3019 3020 3021 3022 3023 3024 3025 3026 3027 3028 3029 3029 3030 3031 3032 3033 3034 3035 3035 3036 3037 3038 3038 3039 3039 3040 3041 3042 3042 3043 3044 3044 3045 3046 3047 3047 3048 3049 3049 3049 3050 3051 3051 3052 3052 3052 3052 3053 3053 3053 3053 3054 3054 3054 3054 3054
3010 3011 3011 3012 3013 3013 3014 3014 3015 3016 3016 3017 3017 3018 3018 3019 3020 3021 3022 3023 3024 3025 3026 3027 3028 3029 3030 3031 3032 3032 3033 3034 3035 3035 3036 3037 3038 3038 3039 3040 3041 3041 3042 3043 3044 3044 3045 3046 3046 3047 3048 3048 3049 3049 3050 3051 3051 3051 3052 3052 3052 3053 3053 3053 3053 3053 3053 3053 3053
3008 3009 3009 3010 3011 3011 3012 3013 3013 3014 3014 3015 3015 3016 3017 3017 3018 3019 3020 3021 3022 3024 3024 3025 3026 3027 3028 3029 3030 3031 3032 3033 3033 3034 3035 3035 3036 3037 3038 3039 3040 3040 3041 3042 3043 3044 3044 3045 3045 3046 3047 3048 3048 3049 3049 3050 3050 3051 3051 3051 3052 3052 3052 3053 3053 3053 3053 3053 3053
3006 3007 3007 3008 3009 3009 3010 3011 3011 3012 3012 3013 3013 3014 3015 3015 3016 3017 3018 3019 3020 3022 3023 3024 3025 3026 3027 3028 3029 3029 3030 3031 3032 3033 3034 3034 3035 3036 3037 3038 3039 3039 3040 3041 3042 3043 3043 3044 3044 3045 3046 3047 3047 3048 3049 3049 3050 3050 3050 3051 3051 3052 3052 3052 3052 3052 3052 3052 3052
3004 3004 3005 3006 3007 3008 3008 3009 3009 3010 3010 3011 3011 3012 3013 3014 3014 3015 3016 3018 3019 3020 3021 3022 3023 3024 3025 3026 3027 3028 3029 3030 3030 3031 3032 3033 3034 3035 3036 3036 3037 3038 3039 3040 3041 3042 3042 3043 3044 3044 3045 3046 3047 3047 3048 3049 3049 3049 3050 3050 3051 3051 3051 3051 3052 3052 3052 3052 3052
3002 3003 3003 3004 3005 3005 3006 3007 3007 3008 3008 3009 3009 3010 3011 3012 3013 3014 3015 3016 3017 3018 3019 3020 3021 3022 3023 3024 3025 3026 3027 3028 3029 3030 3031 3032 3033 3034 3034 3035 3036 3037 3038 3039 3040 3041 3041 3042 3043 3044 3044 3045 3046 3046 3047 3048 3048 3049 3049 3050 3050 3050 3051 3051 3051 3051 3051 3052 3052
2999 3000 3001 3002 3003 3003 3004 3004 3005 3006 3006 3007 3007 3008 3009 3010 3011 3012 3013 3014 3015 3016 3017 3018 3019 3020 3021 3023 3024 3025 3026 3027 3028 3029 3029 3030 3031 3032 3033 3034 3035 3036 3037 3038 3039 3039 3040 3041 3042 3043 3044 3044 3045 3046 3046 3047 3048 3048 3049 3049 3050 3050 3050 3050 3051 3051 3051 3051 3051
2997 2998 2999 2999 3000 3001 3002 3002 3003 3004 3004 3005 3005 3006 3007 3008 3009 3010 3011 3012 3013 3014 3015 3016 3017 3019 3019 3021 3022 3023 3024 3025 3026 3027 3028 3029 3029 3031 3032 3033 3034 3035 3036 3037 3038 3039 3039 3040 3040 3041 3042 3043 3044 3045 3045 3046 3047 3047 3048 3049 3049 3049 3050 3050 3050 3050 3050 3051 3051
2995 2996 2996 2997 2998 2999 2999 3000 3001 3002 3002 3003 3004 3004 3005 3006 3007 3008 3009 3010 3011 3012 3014 3014 3015 3017 3018 3019 3020 3021 3022 3024 3024 3025 3026 3027 3028 3029 3030 3031 3032 3034 3034 3035 3036 3037 3038 3039 3039 3040 3041 3042 3043 3044 3045 3045 3046 3047 3047 3048 3048 3049 3049 3049 3050 3050 3050 3050 3050
2993 2993 2994 2995 2996 2996 2997 2998 2999 2999 3000 3001 3001 3002 3003 3004 3005 3006 3007 3008 3009 3010 3011 3013 3014 3015 3016 3017 3018 3019 3021 3022 3023 3024 3025 3026 3027 3028 3029 3030 3031 3032 3033 3034 3035 3036 3037 3038 3039 3039 3040 3041 3042 3043 3044 3044 3045 3046 3047 3047 3048 3048 3049 3049 3049 3049 3049 3049 3050
2990 2991 2992 2992 2993 2994 2995 2996 2996 2997 2998 2999 2999 3000 3001 3002 3003 3004 3005 3006 3007 3008 3009 3010 3012 3013 3014 3015 3016 3018 3019 3020 3021 3022 3023 3024 3025 3026 3027 3029 3029 3031 3032 3033 3034 3034 3035 3036 3038 3039 3039 3040 3041 3042 3043 3044 3044 3045 3046 3046 3047 3047 3048 3048 3049 3049 3049 3049 3049
2988 2988 2989 2990 2991 2992 2993 2994 2994 2995 2996 2997 2997 2998 2999 3000 3001 3002 3003 3004 3005 3006 3007 3009 3010 3011 3012 3013 3014 3016 3017 3018 3019 3020 3022 3023 3024 3025 3026 3027 3028 3029 3030 3031 3032 3033 3034 3035 3036 3038 3039 3039 3040 3041 3042 3043 3044 3044 3045 3046 3046 3047 3047 3048 3048 3048 3049 3049 3049
2986 2986 2987 2988 2989 2989 2990 2991 2992 2993 2994 2994 2995 2996 2997 2998 2999 3000 3001 3002 3003 3004 3005 3007 3008 3009 3010 3011 3013 3014 3015 3016 3018 3019 3020 3021 3022 3023 3024 3026 3027 3028 3029 3030 3031 3032 3033 3034 3035 3036 3037 3038 3039 3040 3041 3042 3043 3043 3044 3045 3045 3046 3046 3047 3047 3048 3048 3048 3048
2984 2984 2984 2985 2986 2987 2988 2989 2990 2990 2991 2992 2993 2994 2995 2996 2997 2998 2999 3000 3001 3002 3004 3005 3006 3007 3008 3009 3011 3012 3013 3014 3016 3017 3018 3019 3021 3022 3023 3024 3025 3026 3027 3028 3029 3030 3032 3033 3034 3035 3036 3037 3038 3039 3040 3041 3041 3042 3043 3044 3044 3045 3046 3046 3047 3047 3047 3047 3048
2982 2982 2982 2983 2984 2984 2985 2986 2987 2988 2989 2990 2991 2992 2993 2994 2995 2996 2997 2998 2999 3000 3001 3003 3004 3005 3006 3008 3009 3010 3011 3013 3014 3015 3016 3018 3019 3020 3021 3023 3024 3025 3026 3027 3028 3029 3030 3031 3032 3034 3034 3036 3037 3038 3039 3039 3040 3041 3042 3043 3044 3044 3045 3045 3046 3046 3046 3047 3047
2980 2980 2980 2981 2981 2982 2983 2984 2985 2986 2987 2988 2989 2990 2991 2992 2993 2994 2995 2996 2997 2998 2999 3001 3002 3003 3004 3005 3007 3008 3009 3011 3012 3013 3014 3016 3017 3019 3020 3021 3022 3023 3024 3025 3026 3028 3029 3030 3031 3032 3033 3034 3036 3037 3037 3038 3039 3040 3041 3042 3043 3043 3044 3044 3045 3045 3046 3046 3046
2978 2978 2979 2979 2979 2980 2981 2982 2983 2984 2985 2986 2987 2988 2989 2990 2991 2992 2993 2994 2995 2996 2997 2999 3000 3001 3002 3004 3005 3006 3007 3009 3010 3011 3013 3014 3015 3017 3018 3019 3020 3022 3023 3024 3025 3026 3027 3028 3029 3031 3032 3033 3034 3035 3036 3037 3038 3039 3040 3040 3041 3042 3043 3043 3044 3044 3045 3045 3045
2976 2976 2977 2977 2978 2978 2979 2979 2980 2982 2983 2984 2985 2986 2987 2988 2989 2990 2991 2992 2993 2994 2995 2997 2998 2999 3000 3002 3003 3004 3005 3007 3008 3009 3011 3012 3014 3015 3016 3018 3019 3020 3021 3022 3024 3025 3026 3027 3028 3029 3030 3031 3033 3034 3035 3036 3037 3038 3039 3039 3040 3041 3042 3042 3043 3043 3044 3044 3044
2974 2974 2975 2975 2975 2976 2977 2977 2978 2979 2980 2981 2983 2984 2984 2986 2987 2988 2989 2990 2991 2992 2993 2994 2996 2997 2999 3000 3001 3002 3004 3005 3006 3008 3009 3010 3012 3013 3015 3016 3017 3019 3020 3021 3022 3023 3024 3025 3027 3028 3029 3030 3031 3033 3034 3034 3035 3036 3037 3038 3039 3039 3040 3041 3042 3042 3043 3043 3044
2971 2972 2973 2973 2974 2974 2975 2975 2976 2977 2978 2979 2980 2981 2983 2984 2984 2986 2987 2988 2989 2990 2991 2993 2994 2995 2997 2998 2999 3000 3002 3003 3004 3006 3007 3009 3010 3011 3013 3014 3016 3017 3018 3019 3021 3022 3023 3024 3025 3026 3028 3029 3030 3031 3032 3033 3034 3035 3036 3037 3038 3039 3039 3040 3040 3041 3041 3042 3043
2969 2969 2970 2971 2972 2972 2973 2973 2974 2975 2976 2977 2978 2979 2980 2981 2983 2984 2985 2986 2987 2988 2989 2990 2992 2993 2994 2996 2997 2999 3000 3001 3003 3004 3005 3007 3008 3010 3011 3013 3014 3015 3017 3018 3019 3020 3021 3023 3024 3025 3026 3027 3029 3029 3031 3032 3033 3034 3035 3035 3036 3037 3038 3039 3039 3040 3040 3041 3041
2966 2967 2968 2969 2969 2970 2971 2971 2972 2973 2974 2975 2976 2977 2978 2979 2980 2981 2983 2984 2985 2986 2987 2989 2990 2991 2993 2994 2995 2996 2998 2999 3001 3002 3004 3005 3006 3008 3009 3011 3012 3014 3015 3016 3018 3019 3020 3021 3022 3024 3024 3026 3027 3028 3029 3030 3031 3032 3033 3034 3035 3036 3037 3037 3038 3039 3039 3040 3040
2964 2964 2965 2966 2967 2968 2969 2969 2970 2971 2972 2973 2974 2975 2976 2977 2978 2979 2980 2982 2983 2984 2985 2986 2988 2989 2990 2992 2993 2994 2996 2997 2999 3000 3002 3003 3004 3006 3008 3009 3010 3012 3013 3015 3016 3017 3019 3019 3021 3022 3023 3024 3025 3027 3028 3029 3030 3031 3032 3033 3034 3034 3035 3036 3037 3038 3038 3039 3039
2961 2962 2963 2964 2965 2966 2967 2967 2968 2969 2969 2970 2971 2973 2974 2975 2976 2977 2978 2979 2981 2982 2983 2984 2986 2987 2988 2990 2991 2993 2994 2995 2997 2998 3000 3001 3003 3004 3006 3007 3009 3010 3012 3013 3014 3016 3017 3018 3019 3020 3022 3023 3024 3025 3026 3028 3029 3029 3030 3031 3032 3033 3034 3035 3035 3036 3037 3038 3038
2958 2959 2960 2961 2962 2963 2964 2965 2966 2967 2967 2968 2969 2970 2971 2973 2974 2975 2976 2977 2979 2980 2981 2982 2984 2985 2986 2988 2989 2990 2992 2993 2995 2996 2998 2999 3001 3002 3004 3005 3007 3009 3010 3012 3013 3014 3015 3016 3018 3019 3020 3021 3023 3024 3025 3026 3027 3028 3029 3030 3031 3032 3033 3034 3034 3035 3036 3036 3037
2956 2956 2957 2958 2959 2961 2962 2963 2964 2964 2965 2966 2967 2968 2969 2970 2971 2973 2974 2975 2976 2978 2979 2980 2982 2983 2984 2986 2987 2989 2990 2991 2993 2994 2996 2997 2999 3000 3002 3004 3005 3007 3009 3010 3011 3012 3014 3015 3016 3017 3019 3020 3021 3022 3023 3024 3026 3027 3028 3029 3029 3030 3031 3032 3033 3034 3034 3035 3036
2953 2954 2954 2956 2957 2958 2959 2960 2961 2962 2963 2964 2965 2966 2967 2968 2969 2970 2972 2973 2974 2975 2977 2978 2979 2981 2982 2984 2985 2986 2988 2989 2991 2992 2994 2995 2997 2999 3000 3002 3004 3005 3007 3008 3009 3011 3012 3014 3014 3016 3017 3018 3019 3021 3022 3023 3024 3025 3026 3027 3028 3029 3030 3031 3032 3033 3034 3034 3035
2951 2951 2952 2953 2954 2955 2957 2958 2959 2960 2961 2962 2963 2964 2964 2966 2967 2968 2969 2971 2972 2973 2975 2976 2978 2979 2980 2982 2983 2984 2986 2988 2989 2990 2992 2994 2995 2997 2999 3000 3002 3004 3005 3006 3008 3009 3011 3012 3013 3014 3016 3017 3018 3019 3020 3022 3023 3024 3025 3026 3027 3028 3029 3030 3031 3032 3032 3033 3034
2948 2949 2949 2950 2951 2953 2954 2955 2957 2958 2959 2959 2960 2961 2962 2964 2964 2966 2967 2969 2970 2971 2973 2974 2975 2977 2978 2980 2981 2983 2984 2985 2987 2989 2990 2992 2993 2995 2997 2999 3000 3002 3003 3005 3006 3008 3009 3010 3012 3013 3014 3015 3017 3018 3019 3020 3021 3023 3024 3025 3026 3027 3028 3029 3029 3030 3031 3032 3033
2946 2946 2947 2948 2949 2950 2951 2953 2954 2955 2956 2957 2958 2959 2960 2961 2962 2964 2965 2966 2968 2969 2971 2972 2974 2975 2976 2978 2979 2981 2982 2984 2985 2987 2988 2990 2991 2993 2995 2997 2999 3000 3002 3003 3004 3006 3008 3009 3010 3011 3013 3014 3015 3016 3018 3019 3020 3021 3022 3023 3024 3025 3026 3027 3028 3029 3030 3031 3032
2943 2944 2944 2945 2946 2947 2949 2950 2952 2953 2954 2955 2956 2957 2958 2959 2960 2961 2963 2964 2966 2967 2969 2970 2971 2973 2974 2976 2977 2979 2980 2982 2983 2985 2986 2988 2989 2991 2993 2995 2997 2998 3000 3001 3003 3004 3006 3008 3009 3010 3011 3013 3014 3015 3016 3018 3019 3020 3021 3022 3023 3024 3025 3026 3027 3028 3029 3030 3030
2941 2941 2942 2942 2944 2945 2946 2948 2949 2950 2952 2953 2954 2955 2956 2957 2958 2959 2961 2962 2963 2965 2967 2968 2969 2971 2972 2974 2975 2977 2978 2980 2981 2983 2984 2986 2988 2989 2991 2993 2995 2996 2998 2999 3001 3003 3004 3006 3007 3009 3010 3011 3012 3014 3015 3016 3017 3019 3020 3021 3022 3023 3024 3025 3026 3027 3028 3029 3029
2939 2939 2939 2940 2941 2942 2943 2945 2946 2948 2949 2950 2952 2953 2954 2955 2956 2957 2959 2960 2961 2963 2964 2966 2968 2969 2970 2972 2973 2975 2976 2978 2979 2981 2983 2984 2986 2988 2989 2991 2993 2994 2996 2998 2999 3001 3003 3004 3006 3007 3008 3009 3011 3012 3014 3015 3016 3017 3018 3019 3021 3022 3023 3024 3025 3026 3027 3027 3028
2936 2937 2937 2937 2938 2939 2941 2942 2944 2945 2947 2948 2949 2951 2952 2953 2954 2955 2956 2958 2959 2961 2962 2964 2965 2967 2969 2970 2971 2973 2974 2976 2977 2979 2981 2982 2984 2986 2988 2989 2991 2993 2994 2996 2998 2999 3001 3003 3004 3005 3007 3008 3009 3011 3012 3014 3015 3016 3017 3018 3019 3020 3021 3023 3024 3024 3025 3026 3027
2934 2934 2934 2935 2936 2937 2938 2939 2941 2943 2944 2946 2947 2948 2949 2951 2952 2953 2954 2956 2957 2959 2960 2962 2964 2965 2966 2968 2969 2971 2972 2974 2975 2977 2979 2980 2982 2984 2986 2988 2989 2991 2993 2994 2996 2998 2999 3001 3003 3004 3005 3007 3008 3009 3011 3012 3013 3014 3016 3017 3018 3019 3020 3021 3022 3023 3024 3025 3026